Home   Weather   Saint-Étienne   Past weeks

Flag for France Past Weather in Saint-Étienne, Rhône-Alpes, France — Yesterday and Last 2 Weeks

Now
72 °F

Sunny.


Feels Like: 76 °F
Forecast: 41 / 58 °F
Wind: 8 mph from North

Location: St-Etienne Boutheon

Current Time: Apr 24, 2017 at 1:43:30 pm

Latest Report: Apr 24, 2017 at 1:00 pm


Visibility: 10 mi

Pressure: 29.95 "Hg (28.17 "Hg at 529m altitude)

Humidity: 31%

Dew Point: 39 °F

Location of Saint-ÉtienneLocation

Past Weather in Saint-Étienne — Graph

°F

Saint-Étienne Temperature Yesterday

Maximum temperature yesterday: 64 °F (at 5:00 pm)
Minimum temperature yesterday: 41 °F (at 7:00 am)
Average temperature yesterday: 52 °F

High & Low Weather Summary for the Past Weeks

 TemperatureHumidityPressure
High79 °F (Apr 9, 3:00 pm)100% (Apr 14, 7:30 am)30.45 "Hg (Apr 14, 7:30 am)
Low23 °F (Apr 21, 6:30 am)1% (Apr 21, 12:00 am)29.98 "Hg (Apr 13, 5:30 pm)
Average50 °F59%30.19 "Hg
* Reported Apr 9 12:00 pm — Apr 24 12:30 pm, Saint-Étienne, Weather by CustomWeather, © 2017

Note: Actual official high and low records may vary slightly from our data, if they occured in-between our weather recording intervals... More about our weather records

Advertising

Saint-Étienne Weather History for the Previous 24 Hours

Scroll right to see more
 ConditionsComfort  
Time TempWeatherWind HumidityBarometerVisibility
12:30 pm
Mon, Apr 24
70 °FPassing clouds.13 mph33%29.98 "HgN/A
12:00 pm66 °FSunny.14 mph37%29.98 "Hg10 mi
11:30 am61 °FSunny.13 mph42%30.01 "Hg10 mi
11:00 am59 °FSunny.12 mph42%30.01 "Hg10 mi
10:30 am55 °FSunny.12 mph44%30.04 "Hg10 mi
10:00 am54 °FPassing clouds.9 mph47%30.04 "HgN/A
9:30 am52 °FSunny.9 mph47%30.04 "Hg10 mi
9:00 am48 °FSunny.6 mph54%30.04 "Hg10 mi
8:30 am45 °FSunny.7 mph61%30.07 "Hg10 mi
8:00 am41 °FPassing clouds.7 mph70%30.07 "HgN/A
7:30 am37 °FSunny.1 mph75%30.07 "Hg10 mi
7:00 am34 °FSunny.3 mph81%30.07 "Hg10 mi
6:30 am32 °FClear.2 mph87%30.07 "Hg10 mi
6:00 am34 °FClear.No wind81%30.07 "Hg10 mi
5:30 am34 °FClear.No wind81%30.07 "Hg10 mi
5:00 am32 °FClear.2 mph80%30.07 "Hg10 mi
4:30 am32 °FClear.2 mph87%30.07 "Hg10 mi
4:00 am32 °FClear.No wind87%30.09 "Hg10 mi
3:30 am34 °FClear.No wind81%30.09 "Hg10 mi
3:00 am34 °FClear.No wind87%30.09 "Hg10 mi
2:30 am34 °FClear.3 mph81%30.09 "Hg10 mi
2:00 am36 °FClear.1 mph81%30.09 "Hg10 mi
1:30 am37 °FClear.No wind75%30.12 "Hg10 mi
1:00 am36 °FClear.2 mph75%30.12 "Hg10 mi
12:30 am37 °FClear.No wind75%30.12 "Hg10 mi
12:00 am37 °FClear.2 mph65%30.12 "Hg10 mi
11:30 pm
Sun, Apr 23
43 °FClear.1 mph61%30.12 "Hg10 mi
10:30 pm48 °FClear.3 mph50%30.12 "Hg10 mi
10:00 pm50 °FClear.2 mph47%30.12 "Hg10 mi
9:30 pm52 °FClear.2 mph44%30.12 "Hg10 mi
9:00 pm54 °FPassing clouds.7 mph41%30.12 "HgN/A
8:30 pm57 °FPassing clouds.7 mph33%30.09 "HgN/A
8:00 pm59 °FPassing clouds.8 mph34%30.09 "HgN/A
7:30 pm61 °FPassing clouds.9 mph34%30.09 "HgN/A
7:00 pm61 °FPassing clouds.9 mph34%30.09 "HgN/A
6:30 pm63 °FPassing clouds.10 mph32%30.09 "HgN/A
6:00 pm63 °FPassing clouds.10 mph32%30.09 "HgN/A
5:30 pm63 °FPassing clouds.10 mph34%30.09 "HgN/A
5:00 pm64 °FPassing clouds.9 mph34%30.09 "HgN/A
4:30 pm63 °FPassing clouds.9 mph39%30.09 "HgN/A
4:00 pm63 °FPassing clouds.8 mph42%30.12 "HgN/A
3:00 pm63 °FPassing clouds.8 mph45%30.12 "HgN/A
2:30 pm61 °FPassing clouds.6 mph45%30.15 "HgN/A
2:00 pm59 °FScattered clouds.8 mph48%30.15 "HgN/A
1:30 pm59 °FPartly sunny.8 mph51%30.15 "HgN/A
1:00 pm59 °FPartly sunny.8 mph48%30.18 "HgN/A
Weather by CustomWeather, © 2017

See weather overviewHow to use our weather pages